Fort Lewis, WA

9:52 PM PDT on July 27, 2017 (GMT -0700)
Gray Army Air Field

Weather History for KGRF - January, 2012

Change the Weather History Date:

Sunday, January 8, 2012

  Actual Average Record
Temperature  
Mean Temperature 40 °F -  
Max Temperature 51 °F 44 °F 55 °F (2002)
Min Temperature 29 °F 33 °F 24 °F (1998)
Degree Days  
Heating Degree Days 25    
Moisture  
Dew Point 34 °F    
Average Humidity 94    
Maximum Humidity 100    
Minimum Humidity 67    
Precipitation  
Precipitation 0.00 in - - ()
Sea Level Pressure  
Sea Level Pressure 30.34 in    
Wind  
Wind Speed 3 mph (SE)    
Max Wind Speed 8 mph    
Max Gust Speed -    
Visibility 5 miles    
Events Fog    
Averages and records for this station are not official NWS values.
T = Trace of Precipitation, MM = Missing Value Source: NWS Daily Summary

Daily Weather History Graph

Daily Weather History Graph

Search for Another Location

Airport or City:

Trip Planner

Search our weather history database for the weather conditions in past years. The results will help you decide how hot, cold, wet, or windy it might be!

Date:

Astronomy

Jan. 08, 2012 Rise Set
Actual Time 7:55 AM PST 4:38 PM PST
Civil Twilight 7:20 AM PST 5:13 PM PST
Nautical Twilight 6:42 AM PST 5:51 PM PST
Astronomical Twilight 6:05 AM PST 6:28 PM PST
Moon 4:28 PM PST (1/8) 7:17 AM PST (1/8)
Length of Visible Light 9h 53m
Length of Day
8h 43m
Full, 100% of the Moon is Illuminated
Jan 8
Full
Jan 8
Full
Jan 16
Last Quarter
Jan 22
New
Jan 30
First Quarter

Hourly Weather History & Observations

Time (PST) Temp. Windchill Dew Point Humidity Pressure Visibility Wind Dir Wind Speed Gust Speed Precip Events Conditions
12:55 AM 41.4 °F - 38.8 °F 91% 30.40 in 10.0 mi Calm Calm - N/A   Overcast
1:55 AM 41.2 °F 38.2 °F 38.5 °F 90% 30.40 in 10.0 mi South 4.6 mph - N/A   Overcast
2:55 AM 39.4 °F 35.2 °F 37.6 °F 93% 30.40 in 10.0 mi SSE 5.8 mph - N/A   Overcast
3:44 AM 35.6 °F 31.7 °F 33.8 °F 93% 30.38 in 4.0 mi SSE 4.6 mph - N/A   Clear
3:50 AM 35.6 °F 30.7 °F 33.8 °F 93% 30.38 in 1.5 mi SE 5.8 mph - N/A   Clear
3:55 AM 34.9 °F 29.0 °F 34.0 °F 97% 30.38 in 1.2 mi SE 6.9 mph - N/A   Clear
3:59 AM 35.6 °F 29.2 °F 33.8 °F 93% 30.37 in 2.5 mi SE 8.1 mph - N/A   Clear
4:55 AM 34.0 °F - 33.3 °F 97% 30.36 in 10.0 mi Calm Calm - N/A   Clear
5:41 AM 33.8 °F - 33.8 °F 100% 30.37 in 0.8 mi Calm Calm - N/A   Clear
5:44 AM 33.8 °F - 32.0 °F 93% 30.37 in 0.5 mi Calm Calm - N/A Fog Fog
5:55 AM 33.8 °F - 33.3 °F 98% 30.37 in 0.5 mi Calm Calm - N/A Fog Fog
5:58 AM 33.8 °F - 33.8 °F 100% 30.37 in 0.5 mi Calm Calm - N/A Fog Fog
6:00 AM 33.8 °F - 32.0 °F 93% 30.37 in 0.8 mi Calm Calm - N/A   Clear
6:07 AM 32.0 °F - 32.0 °F 100% 30.37 in 0.5 mi Calm Calm - N/A Fog Fog
6:08 AM 32.0 °F - 32.0 °F 100% 30.37 in 0.5 mi Calm Calm - N/A Fog Light Freezing Fog
6:10 AM 32.0 °F - 30.2 °F 93% 30.37 in 0.8 mi Calm Calm - N/A   Clear
6:14 AM 32.0 °F - 30.2 °F 93% 30.37 in 1.0 mi Calm Calm - N/A   Clear
6:17 AM 32.0 °F 28.7 °F 32.0 °F 100% 30.35 in 1.5 mi SE 3.5 mph - N/A   Clear
6:26 AM 32.0 °F 28.7 °F 32.0 °F 100% 30.37 in 1.0 mi SE 3.5 mph - N/A   Clear
6:34 AM 32.0 °F 28.7 °F 30.2 °F 93% 30.37 in 1.2 mi SE 3.5 mph - N/A   Clear
6:36 AM 32.0 °F 28.7 °F 30.2 °F 93% 30.37 in 1.5 mi SE 3.5 mph - N/A   Clear
6:43 AM 32.0 °F 28.7 °F 30.2 °F 93% 30.37 in 3.0 mi SE 3.5 mph - N/A   Clear
6:52 AM 32.0 °F 28.7 °F 30.2 °F 93% 30.36 in 2.0 mi SE 3.5 mph - N/A   Clear
6:55 AM 31.5 °F 26.8 °F 30.9 °F 98% 30.36 in 2.0 mi SE 4.6 mph - N/A   Clear
7:00 AM 30.2 °F 25.4 °F 30.2 °F 100% 30.36 in 1.8 mi SE 4.6 mph - N/A   Clear
7:04 AM 30.2 °F 24.3 °F 30.2 °F 100% 30.36 in 2.0 mi SSE 5.8 mph - N/A   Clear
7:08 AM 30.2 °F 24.3 °F 30.2 °F 100% 30.36 in 2.5 mi SE 5.8 mph - N/A   Clear
7:14 AM 30.2 °F 25.4 °F 30.2 °F 100% 30.36 in 3.0 mi SE 4.6 mph - N/A   Clear
7:15 AM 30.2 °F 25.4 °F 30.2 °F 100% 30.36 in 3.0 mi SE 4.6 mph - N/A   Clear
7:55 AM 29.8 °F 23.0 °F 29.5 °F 99% 30.35 in 7.0 mi SSE 6.9 mph - N/A   Clear
8:07 AM 30.2 °F 25.4 °F 30.2 °F 100% 30.35 in 3.0 mi SE 4.6 mph - N/A   Clear
8:10 AM 30.2 °F 25.4 °F 30.2 °F 100% 30.35 in 1.5 mi SE 4.6 mph - N/A   Clear
8:20 AM 30.2 °F 25.4 °F 30.2 °F 100% 30.35 in 0.5 mi SE 4.6 mph - N/A Fog Fog
8:38 AM 32.0 °F 28.7 °F 32.0 °F 100% 30.35 in 0.2 mi SSE 3.5 mph - N/A Fog Fog
9:15 AM 32.0 °F - 32.0 °F 100% 30.36 in 0.2 mi Calm Calm - N/A Fog Fog
9:20 AM 32.0 °F 28.7 °F 32.0 °F 100% 30.36 in 0.5 mi SE 3.5 mph - N/A Fog Fog
9:24 AM 32.0 °F 28.7 °F 32.0 °F 100% 30.33 in 0.8 mi SE 3.5 mph - N/A   Mist
9:26 AM 33.8 °F 30.8 °F 32.0 °F 93% 30.36 in 1.5 mi SE 3.5 mph - N/A   Partly Cloudy
9:28 AM 32.0 °F 28.7 °F 32.0 °F 100% 30.34 in 2.0 mi SE 3.5 mph - N/A   Partly Cloudy
9:31 AM 32.0 °F 28.7 °F 32.0 °F 100% 30.33 in 7.0 mi SE 3.5 mph - N/A   Partly Cloudy
9:55 AM 35.1 °F - 34.9 °F 99% 30.36 in 10.0 mi Calm Calm - 0.00 in   Clear
10:55 AM 39.4 °F - 37.4 °F 93% 30.36 in 10.0 mi Calm Calm - N/A   Clear
11:55 AM 43.9 °F - 37.6 °F 78% 30.34 in 10.0 mi Calm Calm - N/A   Clear
12:55 PM 46.2 °F - 38.8 °F 75% 30.32 in 10.0 mi Calm Calm - N/A   Clear
1:55 PM 50.2 °F - 39.9 °F 68% 30.31 in 10.0 mi ESE 3.5 mph - N/A   Clear
2:55 PM 51.6 °F - 40.8 °F 67% 30.29 in 10.0 mi SSE 5.8 mph - N/A   Clear
3:55 PM 50.4 °F - 41.4 °F 71% 30.27 in 10.0 mi SE 6.9 mph - N/A   Clear
4:55 PM 43.9 °F 42.3 °F 40.6 °F 88% 30.27 in 10.0 mi SE 3.5 mph - N/A   Clear
5:55 PM 41.4 °F - 40.1 °F 95% 30.27 in 10.0 mi Calm Calm - N/A   Overcast
6:55 PM 37.4 °F 33.8 °F 36.1 °F 95% 30.27 in 10.0 mi SE 4.6 mph - N/A   Scattered Clouds
7:55 PM 39.9 °F - 39.4 °F 98% 30.26 in 10.0 mi Calm Calm - N/A   Overcast
8:55 PM 40.5 °F 37.3 °F 39.9 °F 98% 30.25 in 10.0 mi ENE 4.6 mph - N/A   Overcast
9:55 PM 39.9 °F - 39.0 °F 97% 30.25 in 10.0 mi Calm Calm - N/A   Scattered Clouds
10:55 PM 39.2 °F - 38.7 °F 98% 30.25 in 10.0 mi Calm Calm - N/A   Overcast
11:55 PM 39.7 °F - 39.2 °F 98% 30.25 in 10.0 mi Calm Calm - N/A   Mostly Cloudy